Hourly Data Report for September 23, 2017

All times are specified in Local Standard Time (LST). Add 1 hour to adjust for Daylight Saving Time where and when it is observed.

ST. STEPHEN
NEW BRUNSWICK

45°12'36.600" N
67°15'10.300" W
26.10 m
8104935
71607
WSS

Download Data

Hourly Data (September 2017)
Hourly Data Report for September 23, 2017
Temp Definition
°C
Dew Point Temp Definition
°C
Rel Hum Definition
%
Wind Dir Definition
10's deg

Wind Spd Definition
km/h
Visibility Definition
km
Stn Press Definition
kPa
Hmdx Definition


Wind Chill Definition


Weather Definition


TIME
00:00 10.7 9.7 94   0   101.55     LegendNANA
01:00 12.2 9.9 86   0   101.54     LegendNANA
02:00 11.3 9.4 89 23 1   101.51     LegendNANA
03:00 10.8 9.0 89 28 3   101.47     LegendNANA
04:00 9.8 8.4 91   0   101.39     LegendNANA
05:00 9.0 7.9 93 0 1   101.38     LegendNANA
06:00 8.8 7.9 94   0   101.38     LegendNANA
07:00 9.6 8.4 92 30 2   101.38     LegendNANA
08:00 12.8 8.9 77 23 2   101.37     LegendNANA
09:00 16.5 10.3 67 24 2   101.33     LegendNANA
10:00 19.6 10.2 55 22 4   101.33     LegendNANA
11:00 22.8 11.9 50 20 5   101.33 25   LegendNANA
12:00 24.8 11.6 44 25 5   101.30 27   LegendNANA
13:00 26.3 9.9 36 25 7   101.21 28   LegendNANA
14:00 27.7 7.6 28 26 9   101.16 28   LegendNANA
15:00 28.6 8.2 28 25 7   101.08 29   LegendNANA
16:00 29.0 9.2 29 24 6   101.07 30   LegendNANA
17:00 28.5 11.8 36 24 9   101.06 31   LegendNANA
18:00 26.1 15.0 50 26 3   101.10 30   LegendNANA
19:00 20.4 15.5 73 9 2   101.15 25   LegendNANA
20:00 18.1 15.7 86 0 1   101.22     LegendNANA
21:00 16.5 15.0 91   0   101.24     LegendNANA
22:00 15.6 14.4 93   0   101.30     LegendNANA
23:00 14.9 13.9 94   0   101.30     LegendNANA

Notes on Data Quality.

Legend

  • E = Estimated
  • M = Missing
  • NA = Not Available
  • ‡ = Partner data that is not subject to review by the National Climate Archives
Date modified: